Location: ?????
(44.4284°N, 135.2222°E)
Time: 14:26:50
(UTC+00:00)

COSMOS 2455 - Pass Details

Date: 19 May 2025
Orbit: 899 x 909 km, 67.1° (Epoch: 20 June)

Event Time Altitude Azimuth Distance (km) Brightness Sun altitude
Rises 18:28:43 0° 325° (NW) 3,544 6.0 -9.4°
Reaches altitude 10° 18:31:15 10° 322° (NW) 2,599 5.3 -9.0°
Maximum altitude 18:37:09 59° 245° (WSW) 1,043 2.9 -8.2°
Drops below altitude 10° 18:43:02 10° 167° (SSE) 2,584 5.0 -7.4°
Sets 18:45:34 0° 163° (SSE) 3,521 5.7 -7.0°
